Regional Weather Roundup
Issued by NWS

Home | Current Version | Previous Version | Graphics & Text | Print | Product List | Glossary On
Versions: 1 2 3 4 5 6 7 8 9 10 11 12 13 14 15 16 17 18 19 20 21 22 23 24 25 26 27 28 29 30 31 32 33 34 35 36 37 38 39 40 41 42 43 44 45 46 47 48 49 50
723
ASUS43 KMPX 221801
RWRMN
WEATHER ROUNDUP FOR MINNESOTA
NATIONAL WEATHER SERVICE TWIN CITIES/CHANHASSEN MN
100 PM CDT SAT JUL 22 2017


NOTE: "FAIR" INDICATES FEW OR NO CLOUDS BELOW 12,000 FEET WITH NO
SIGNIFICANT WEATHER AND/OR OBSTRUCTIONS TO VISIBILITY. N/A MEANS
CURRENT SKY AND/OR WEATHER CONDITIONS ARE NOT AVAILABLE.

MNZ060>063-068>070-221900-
   Twin Cities Metro

CITY           SKY/WX    TMP DP  RH WIND       PRES   REMARKS
TWIN CITIES    MOSUNNY   86  68  54 W5        29.81F
6HR MIN TEMP:  71; 6HR MAX TEMP:  87;

ST PAUL        SUNNY     85  69  58 SW5       29.81S
CRYSTAL        SUNNY     86  65  49 W13       29.80F
BLAINE         MOSUNNY   88  66  48 W9        29.81F HX  90
LAKEVILLE      SUNNY     82  70  65 CALM      29.83F
EDEN PRAIRIE   SUNNY     86  69  56 W8        29.81F HX  90
6HR MIN TEMP:  71; 6HR MAX TEMP:  87;

SOUTH ST PAUL  SUNNY     85  67  55 W5        29.81F
LAKE ELMO      FAIR      84  70  61 W7        29.83S
$$
MNZ001>005-007-008-013>017-022>024-027-028-221900-
   Northwest Minnesota

CITY           SKY/WX    TMP DP  RH WIND       PRES   REMARKS
BEMIDJI        MOSUNNY   79  64  59 W18       29.83S
HALLOCK        SUNNY     73  61  64 W17G24    29.81F
ROSEAU         SUNNY     75  64  69 W10G18    29.79S
WARROAD        SUNNY     75  64  69 W15G21    29.78F
CROOKSTON      SUNNY     79  55  44 NW20G28   29.84S
FOSSTON        SUNNY     77  61  57 W18G25    29.85F
DETROIT LAKES  SUNNY     79  63  57 NW17G24   29.88S
MOORHEAD       SUNNY     81  61  50 NW18      29.86S
PARK RAPIDS    SUNNY     83  65  54 W17G26    29.85S
MAHNOMEN       FAIR      77  67  71 NW16G22   29.85F
$$
MNZ006-009>011-018-025>026-221900-
   North Central Minnesota

CITY           SKY/WX    TMP DP  RH WIND       PRES   REMARKS
BAUDETTE       SUNNY     80  57  45 W14G23    29.77S
FLAG ISLAND    MOSUNNY   77  63  61 NE6       29.73F
INTL FALLS     PTSUNNY   75  66  73 W6        29.79S
6HR MIN TEMP:  58; 6HR MAX TEMP:  75; 6HR PCP: TRACE;

WASKISH        MOSUNNY   79  66  65 SW12      29.80S
BIG FORK       MOSUNNY   79  64  61 W6        29.81S
LONGVILLE      MOSUNNY   81  64  57 W6        29.83S
GRAND RAPIDS   MOSUNNY   79  65  62 NW9       29.84S
CRANE LAKE     PTSUNNY   72  64  78 S5        29.81S
ORR            PTSUNNY   72  63  73 CALM      29.79S
COOK           MOSUNNY   73  64  73 CALM      29.81F
WALKER         MOCLDY    80  64  58 NW14G20   29.83S
$$
MNZ012-019>021-037-221900-
   Northeast Minnesota

CITY           SKY/WX    TMP DP  RH WIND       PRES   REMARKS
DULUTH         MOSUNNY   66  61  84 SE10      29.84S
6HR MIN TEMP:  60; 6HR MAX TEMP:  70;

ELY            SUNNY     75  61  60 S6        29.81S
HIBBING        PTSUNNY   77  69  76 VRB6      29.82S
EVELETH        SUNNY     73  60  63 CALM      29.83S
DULUTH HARBOR  CLOUDY    63  57  82 NE6       29.85F
TWO HARBORS    CLOUDY    66  59  77 S5        29.83R
SILVER BAY     SUNNY     66  55  68 E10       29.82F
GRAND MARAIS     N/A     60  53  77 E13G21    29.82F
G MARAIS ARPRT CLOUDY    68  55  64 NE7       29.85F
$$
MNZ029>031-032-039>041-046>048-054>057-064-221900-
   West Central Minnesota

CITY           SKY/WX    TMP DP  RH WIND       PRES   REMARKS
FERGUS FALLS   MOSUNNY   79  70  73 NW15      29.86S
WHEATON        SUNNY     82  68  61 W9        29.88S
MORRIS         SUNNY     84  66  54 NW16      29.86S
ALEXANDRIA     MOSUNNY   81  69  67 NW13      29.89R
ELBOW LAKE     FAIR      79  71  76 NW13      29.88R HAZE
WADENA         SUNNY     79  64  61 NW17G24   29.85S
GLENWOOD       SUNNY     82  70  65 W12G17    29.87S
APPLETON       SUNNY     84  70  61 W10       29.86S
BENSON         MOSUNNY   84  70  61 NW8       29.87S
ORTONVILLE     SUNNY     82  68  61 NW7       29.88R
MADISON        MOSUNNY   86  70  58 W10       29.88R HX  90
WILLMAR        FAIR      82  72  69 W10       29.87S
$$
MNZ033>034-036-042>043-049>051-058-059-221900-
   Central Minnesota

CITY           SKY/WX    TMP DP  RH WIND       PRES   REMARKS
ST CLOUD       SUNNY     85  67  54 NW12      29.83S
6HR MIN TEMP:  65; 6HR MAX TEMP:  86;

SAUK CENTRE    FAIR      84  68  59 W10G18    29.86S
PAYNESVILLE    SUNNY     85  66  52 W13       29.85S
AITKIN         MOSUNNY   81  68  65 W7        29.82S
PINE RIVER     SUNNY     81  64  57 NW8       29.87S
BRAINERD       SUNNY     82  64  54 NW14      29.83S
STAPLES        MOSUNNY   81  66  61 NW14G20   29.85R
LONG PRAIRIE   FAIR      81  68  65 W10       29.87S
LITTLE FALLS   MOSUNNY   81  64  57 W12G18    29.84S
LITCHFIELD     MOSUNNY   88  72  58 W9        29.84S HX  94
BUFFALO        SUNNY     84  66  53 W8        29.84S
MAPLE LAKE     SUNNY     85  70  61 W8        29.84F
HUTCHINSON     SUNNY     85  73  68 W10       29.85S HX  91
$$
MNZ037-044-045-052-053-221900-
   East Central Minnesota

CITY           SKY/WX    TMP DP  RH WIND       PRES   REMARKS
PRINCETON      SUNNY     84  70  61 W3        29.83F
MORA           SUNNY     79  64  61 W8        29.84F
CAMBRIDGE      MOSUNNY   84  66  54 SW5       29.81F
RUSH CITY      SUNNY     82  67  61 W3        29.83S
MOOSE LAKE     MOSUNNY   79  66  65 CALM      29.81S
HINCKLEY       FAIR      81  68  65 W7        29.83S
CLOQUET        PTSUNNY   73  64  73 SE5       29.83F
MCGREGOR       MOSUNNY   81  66  61 W8        29.83F
$$
MNZ071>073-080-081-089-090-097-098-221900-
   Southwest Minnesota

CITY           SKY/WX    TMP DP  RH WIND       PRES   REMARKS
MONTEVIDEO     MOSUNNY   84  75  74 NW7       29.87S HX  92
GRANITE FALLS  MOSUNNY   84  72  66 W9        29.88S HX  90
CANBY          MOSUNNY   87  69  54 CALM      29.89F HX  91
MARSHALL       MOSUNNY   83  71  67 NW13      29.88S
REDWOOD FALLS  MOSUNNY   84  70  62 W12       29.85S
OLIVIA         SUNNY     81  70  69 NW12      29.85S
PIPESTONE      SUNNY     82  70  65 NW12      29.92S
WINDOM         SUNNY     82  70  65 W13       29.88S
WORTHINGTON    SUNNY     83  73  72 W12       29.90F
JACKSON        SUNNY     81  70  69 W9        29.89R
SLAYTON        SUNNY     81  69  65 W10       29.91S
$$
MNZ065>067-074>077-082>085-091>093-221900-
   South Central Minnesota

CITY           SKY/WX    TMP DP  RH WIND       PRES   REMARKS
MANKATO        MOSUNNY   80  71  74 VRB5      29.85F
NEW ULM        MOSUNNY   82  72  69 W6        29.85S
ST JAMES       MOSUNNY   82  72  69 W8        29.86S
FAIRMONT       MOSUNNY   80  71  74 W5        29.87F
GLENCOE        SUNNY     84  74  72 W5        29.83S HX  91
FARIBAULT      SUNNY     82  70  65 S3        29.85R
OWATONNA       SUNNY     82  72  69 W3        29.85S
WASECA         MOSUNNY   79  70  73 CALM      29.87S
ALBERT LEA     MOSUNNY   77  68  73 N3        29.86F
$$
MNZ078>079-086>088-094>096-221900-
   Southeast Minnesota

CITY           SKY/WX    TMP DP  RH WIND       PRES   REMARKS
ROCHESTER      CLOUDY    76  71  85 VRB5      29.86F
6HR MIN TEMP:  68; 6HR MAX TEMP:  76;

RED WING       SUNNY     84  66  54 S5        29.80F
STANTON        SUNNY     83  68  60 NW3       29.82S
DODGE CENTER   MOSUNNY   81  70  69 S3        29.86S
WINONA         PTSUNNY   77  68  73 SW6       29.82F
AUSTIN         PTSUNNY   79  70  73 CALM      29.86S
PRESTON        CLOUDY    73  68  85 CALM      29.87S
$$
ABBREVIATIONS USED IN REMARKS
   TC - TEMPERATURES IN CELSIUS
  WCI - WIND CHILL INDEX
   HX - HEAT INDEX
  VSB - VISIBILITY
$$




USA.gov is the U.S. government's official web portal to all federal, state and local government web resources and services.